Regional Weather Roundup
Issued by NWS Sioux Falls, SD

Home | Current Version | Previous Version | Graphics & Text | Print | Product List | Glossary Off
Versions: 1 2 3 4 5 6 7 8 9 10 11 12 13 14 15 16 17 18 19 20 21 22 23 24 25 26 27 28 29 30 31 32 33 34 35 36 37 38 39 40 41 42 43 44 45 46 47 48 49 50

000
ASUS43 KFSD 280402
RWRFSD

WEATHER ROUNDUP FOR SE SOUTH DAKOTA/SW MINNESOTA/NW IOWA
NATIONAL WEATHER SERVICE SIOUX FALLS SD
1100 PM CDT FRI MAR 27 2015

NOTE: "FAIR" INDICATES FEW OR NO CLOUDS BELOW 12,000 FEET WITH NO
SIGNIFICANT WEATHER AND OR OBSTRUCTIONS TO VISIBILITY.


SDZ038>040-050-052>070-280500-
SOUTHEAST SOUTH DAKOTA

CITY           SKY/WX    TMP DP  RH WIND       PRES   REMARKS
CHAMBERLAIN    NOT AVBL
HURON          MOCLDY    31  28  89 SE9       30.04R WCI  23
MADISON        CLOUDY    30  23  74 SE12      30.06R WCI  21
MITCHELL       PTCLDY    31  27  85 SE8       30.04R WCI  23
SIOUX FALLS    CLOUDY    32  22  66 SE13      30.08R WCI  22
WINNER         FAIR      37  29  72 SE7       29.94R
YANKTON        CLOUDY    34  25  69 SE10      30.05R WCI  26
$$

MNZ071-072-080-081-089-090-097-098-280500-
SOUTHWEST MINNESOTA

CITY           SKY/WX    TMP DP  RH WIND       PRES   REMARKS
FAIRMONT       CLOUDY    30  18  59 SE6       30.13R WCI  24
JACKSON        LGT SNOW  32  23  69 W6        30.12S WCI  26
LUVERNE        CLOUDY    32  27  80 SE8       30.11R WCI  25
MARSHALL       CLOUDY    28  21  74 SE10      30.13R WCI  19
MONTEVIDEO     CLOUDY    28  21  74 S3        30.15R
PIPESTONE      FLURRIES  28  25  86 SE5       30.09R WCI  23
REDWOOD FALLS  CLOUDY    32  22  66 E7        30.14R WCI  26
TRACY          LGT SNOW  28  27  93 SE6       30.13S WCI  22
WINDOM         LGT SNOW  28  25  86 CALM      30.13R
WORTHINGTON    CLOUDY    27  23  86 E6        30.12S WCI  20
$$

IAZ001>003-012>014-020>022-031-032-NEZ013-014-SDZ071-280500-
NORTHWEST IOWA

CITY           SKY/WX    TMP DP  RH WIND       PRES   REMARKS
DENISON        MIX PCPN  32  23  69 SE5       30.10R WCI  27
ESTHERVILLE    CLOUDY    32  19  58 S10       30.12S WCI  24
SIOUX CITY     CLOUDY    35  23  61 SE9       30.08F WCI  28
SPENCER        LGT SNOW  30  23  75 CALM      30.13S
$$

ABBREVIATIONS USED IN REMARKS
   TC - TEMPERATURE IN CELSIUS
  WCI - WIND CHILL INDEX
   HX - HEAT INDEX
  VSB - VISIBILITY



USA.gov is the U.S. government's official web portal to all federal, state and local government web resources and services.